Weather History for Craig, CO

Change the Weather History Date:

Thursday, February 21, 2013

  Actual Average Record
Temperature  
Mean Temperature 19 °F 22 °F  
Max Temperature 26 °F 35 °F 48 °F (2000)
Min Temperature 11 °F 9 °F -8 °F (2006)
Degree Days  
Heating Degree Days 46 43  
Month to date heating degree days 976 953  
Since 1 July heating degree days 5950 6037  
Cooling Degree Days 0 0  
Month to date cooling degree days 0 0  
Year to date cooling degree days 0 0  
Moisture  
Dew Point 13 °F    
Average Humidity 73    
Maximum Humidity 83    
Minimum Humidity 63    
Precipitation  
Precipitation T in 0.03 in 0.11 in (2001)
Month to date precipitation 0.14 0.62  
Year to date precipitation 0.85 1.50  
Sea Level Pressure  
Sea Level Pressure 29.87 in    
Wind  
Wind Speed 7 mph (WSW)    
Max Wind Speed 17 mph    
Max Gust Speed 18 mph    
Visibility 10 miles    
Events Snow    
T = Trace of Precipitation, MM = Missing Value Source: NWS Daily Summary

Daily Weather History Graph

Daily Weather History Graph

Search for Another Location

Airport:

Trip Planner

Search our weather history database for the weather conditions in past years. The results will help you decide how hot, cold, wet, or windy it might be!

Date:

Astronomy

Feb. 21, 2013 Rise Set
Actual Time 6:55 AM MST 5:52 PM MST
Civil Twilight 6:27 AM MST 6:20 PM MST
Nautical Twilight 5:55 AM MST 6:52 PM MST
Astronomical Twilight 5:24 AM MST 7:23 PM MST
Moon 2:09 PM MST (2/21) 4:02 AM MST (2/21)
Length of Visible Light 11h 52m
Length of Day
10h 57m
Waxing Gibbous, 84% of the Moon is Illuminated
Feb 21
Waxing Gibbous
Feb 25
Full
Mar 4
Last Quarter
Mar 11
New
Mar 19
First Quarter

Hourly Weather History & Observations

Time (MST) Temp. Windchill Dew Point Humidity Pressure Visibility Wind Dir Wind Speed Gust Speed Precip Events Conditions
12:53 AM 23.0 °F - 15.1 °F 72% 29.70 in 10.0 mi Calm Calm - N/A   Overcast
1:53 AM 24.1 °F 13.7 °F 15.1 °F 69% 29.70 in 10.0 mi West 10.4 mph - N/A   Overcast
2:53 AM 23.0 °F 13.1 °F 15.1 °F 72% 29.70 in 10.0 mi WSW 9.2 mph - N/A   Overcast
3:53 AM 21.9 °F 12.5 °F 14.0 °F 72% 29.72 in 10.0 mi West 8.1 mph - N/A   Overcast
4:53 AM 21.0 °F 11.4 °F 12.9 °F 71% 29.75 in 10.0 mi West 8.1 mph - N/A   Overcast
5:53 AM 19.9 °F 9.3 °F 12.9 °F 74% 29.79 in 10.0 mi WNW 9.2 mph - N/A   Overcast
6:12 AM 19.4 °F 10.4 °F 14.0 °F 80% 29.69 in 10.0 mi West 6.9 mph - N/A   Overcast
6:21 AM 21.2 °F 9.5 °F 12.2 °F 68% 29.70 in 10.0 mi West 11.5 mph - N/A   Overcast
6:28 AM 19.4 °F 7.9 °F 12.2 °F 74% 29.70 in 10.0 mi West 10.4 mph - N/A   Overcast
6:53 AM 19.9 °F 7.3 °F 12.9 °F 74% 29.83 in 10.0 mi West 12.7 mph - N/A   Overcast
7:19 AM 19.4 °F 8.6 °F 12.2 °F 74% 29.72 in 10.0 mi West 9.2 mph - N/A   Overcast
7:32 AM 19.4 °F 8.6 °F 12.2 °F 74% 29.73 in 10.0 mi WSW 9.2 mph - N/A   Overcast
7:53 AM 19.0 °F 6.8 °F 12.0 °F 74% 29.88 in 9.0 mi WSW 11.5 mph - N/A   Overcast
8:53 AM 19.9 °F 7.9 °F 12.9 °F 74% 29.91 in 10.0 mi WSW 11.5 mph - N/A   Overcast
9:53 AM 21.2 °F 8.3 °F 15.8 °F 80% 29.78 in 10.0 mi SW 13.8 mph - N/A   Overcast
10:53 AM 25.0 °F 18.1 °F 15.1 °F 66% 29.92 in 10.0 mi WNW 5.8 mph - N/A   Overcast
11:53 AM 25.0 °F 14.2 °F 15.1 °F 66% 29.93 in 10.0 mi West 11.5 mph - N/A   Overcast
12:53 PM 25.0 °F 13.6 °F 16.0 °F 69% 29.92 in 10.0 mi West 12.7 mph - N/A   Overcast
1:53 PM 25.0 °F 14.8 °F 15.1 °F 66% 29.91 in 10.0 mi West 10.4 mph - N/A   Overcast
2:53 PM 26.1 °F 16.2 °F 15.1 °F 63% 29.92 in 10.0 mi WNW 10.4 mph - N/A   Overcast
3:53 PM 25.0 °F 15.5 °F 16.0 °F 69% 29.94 in 10.0 mi West 9.2 mph - N/A   Overcast
4:39 PM 24.8 °F 16.9 °F 15.8 °F 69% 29.83 in 10.0 mi SW 6.9 mph - N/A   Overcast
4:53 PM 25.0 °F 18.1 °F 16.0 °F 69% 29.95 in 10.0 mi SW 5.8 mph - N/A   Overcast
5:53 PM 21.0 °F 13.4 °F 15.1 °F 78% 29.98 in 10.0 mi SSW 5.8 mph - N/A   Overcast
6:53 PM 19.0 °F 11.1 °F 12.0 °F 74% 30.01 in 10.0 mi SSW 5.8 mph - N/A   Overcast
7:53 PM 16.0 °F - 10.0 °F 77% 30.04 in 10.0 mi Calm Calm - N/A   Overcast
8:53 PM 17.1 °F - 10.9 °F 77% 30.04 in 10.0 mi Calm Calm - N/A   Mostly Cloudy
9:53 PM 10.9 °F 4.7 °F 7.0 °F 84% 30.07 in 10.0 mi West 3.5 mph - N/A   Overcast
10:53 PM 16.0 °F - 10.9 °F 81% 30.04 in 6.0 mi Calm Calm - 0.00 in Snow Light Snow
11:53 PM 12.9 °F - 10.0 °F 88% 30.07 in 8.0 mi Calm Calm - 0.00 in   Overcast